Content
SEND FEEDBACK

Daily
Averages
Monthly
Summary
Brazil

CUIABA, MATO GROSSO


Home > South America > Brazil > Mato Grosso
Elevation: 623 feet     Latitude: 15 38S     Longitude: 056 06W

WEATHER
 
SELECT A DAY
Number of Records: 167,917;   Date Range: 6/30/96 - 8/10/14
 
SHARE

PRINT THIS DATA

[ ← Previous Day ]
WEATHER ALMANAC - FEBRUARY 12, 2013
[ Next Day → ]
[ °C ]   °F
Weather ElementAverageHighLow
Temperature77.7 °F86 °F (4:00 pm)73.4 °F (5:00 am)
Dewpoint69.8 °F71.6 °F (3:00 am)66.2 °F (6:00 pm)
Humidity76.6 %89 % (3:00 am)51 % (6:00 pm)
Barometer28.75 in29.95 in (10:00 am) (7:00 pm)
Wind Speed3.2 mph17.3 mph (12:00 pm)
Weather ElementAverage
Visibility7.2 mi
Wind DirectionESE (112.9 °)

Weather ElementTotal
Precipitation---
Cooling Degree Days14.7 (Base 65)
Growing Degree Days29.7 (Base 50)
Averaged from 27 records on February 12, 2013
WEATHER CONDITIONS BREAKOUT
WIND DIRECTION BREAKOUT
WEATHER BY HOUR - FEBRUARY 12, 2013
[ °C ]   °F
Local TimeTemperatureDewpointHumidityBarometerVisibilityWind DirectionWind SpeedGust SpeedPrecipitationEventsConditions
1:00 AM77.0 °F69.8 °F78 %29.89 in6.2 miCalmScattered Clouds
2:00 AM77.0 °F69.8 °F78 %29.86 in6.2 miCalmScattered Clouds
3:00 AM75.0 °F71.0 °F83 %29.83 in12.0 miCalmScattered Clouds
3:00 AM75.2 °F71.6 °F89 %29.86 inCalmClear
4:00 AM75.2 °F71.6 °F89 %29.89 in6.2 miCalmScattered Clouds
5:00 AM73.4 °F69.8 °F88 %29.86 in6.2 miSW (230°)4.6 mphScattered Clouds
6:00 AM73.4 °F69.8 °F88 %6.2 miCalmRainLight Rain
7:00 AM73.4 °F69.8 °F88 %29.86 in6.2 miCalmMostly Cloudy
8:00 AM73.4 °F69.8 °F88 %29.89 in6.2 miCalmMostly Cloudy
9:00 AM75.0 °F71.0 °F82 %29.90 in12.0 miCalmOvercast
9:00 AM75.2 °F69.8 °F83 %29.92 in6.2 miCalmMostly Cloudy
10:00 AM77.0 °F71.6 °F83 %29.95 in6.2 miCalmMostly Cloudy
11:00 AM78.8 °F69.8 °F74 %29.95 in6.2 miNNE (20°)9.2 mphMostly Cloudy
12:00 PM73.4 °F68.0 °F83 %29.95 in5.0 miNNW (340°)17.3 mphRainLight Rain
1:00 PM75.2 °F68.0 °F78 %29.92 in6.2 miNW (320°)15.0 mphMostly Cloudy
2:00 PM77.0 °F68.0 °F74 %29.89 in6.2 miNNW (340°)9.2 mphMostly Cloudy
3:00 PM83.0 °F69.0 °F54 %29.81 in12.0 miWest (280°)4.6 mphPartly Cloudy
3:00 PM84.2 °F69.8 °F62 %29.83 inWest (280°)4.6 mphClear
4:00 PM86.0 °F68.0 °F55 %29.80 inNW (320°)8.1 mphClear
5:00 PM86.0 °F68.0 °F55 %29.77 inWest (280°)8.1 mphClear
6:00 PM86.0 °F66.2 °F51 %29.77 inCalmClear
7:00 PM84.2 °F68.0 °F58 %29.77 in6.2 miWNW (300°)4.6 mphScattered Clouds
8:00 PM78.8 °F69.8 °F74 %29.77 in6.2 miCalmScattered Clouds
9:00 PM76.0 °F71.0 °F79 %29.80 in12.0 miCalmPartly Cloudy
9:00 PM77.0 °F71.6 °F83 %29.80 in6.2 miCalmPartly Cloudy
10:00 PM77.0 °F71.6 °F83 %29.86 in6.2 miCalmPartly Cloudy
11:00 PM75.2 °F71.6 °F89 %29.86 in6.2 miCalmPartly Cloudy
Hourly data recorded from SBCY, located miles away from Cuiaba, Mato Grosso







STORIES FROM OUR PARTNERS